TimeAKDT,TemperatureF,Dew PointF,Humidity,Sea Level PressureIn,VisibilityMPH,Wind Direction,Wind SpeedMPH,Gust SpeedMPH,PrecipitationIn,Events,Conditions,WindDirDegrees,DateUTC
12:53 AM,55.0,46.0,72,30.03,10.0,North,5.8,-,N/A,,Clear,350,2013-07-22 08:53:00
1:53 AM,57.9,46.0,65,30.04,10.0,North,8.1,-,N/A,,Clear,360,2013-07-22 09:53:00
2:53 AM,57.0,45.0,64,30.04,10.0,North,8.1,-,N/A,,Clear,350,2013-07-22 10:53:00
3:53 AM,59.0,44.1,58,30.05,10.0,North,8.1,-,N/A,,Clear,350,2013-07-22 11:53:00
4:53 AM,54.0,44.1,69,30.06,10.0,Calm,Calm,-,N/A,,Clear,0,2013-07-22 12:53:00
5:53 AM,52.0,44.1,74,30.06,10.0,Calm,Calm,-,N/A,,Clear,0,2013-07-22 13:53:00
6:53 AM,57.0,45.0,64,30.07,10.0,Calm,Calm,-,N/A,,Clear,0,2013-07-22 14:53:00
7:53 AM,62.1,45.0,53,30.09,10.0,NNE,4.6,-,N/A,,Clear,30,2013-07-22 15:53:00
8:53 AM,64.9,45.0,48,30.09,10.0,North,13.8,-,N/A,,Clear,10,2013-07-22 16:53:00
9:53 AM,68.0,44.1,42,30.08,10.0,North,16.1,-,N/A,,Clear,360,2013-07-22 17:53:00
10:53 AM,70.0,43.0,38,30.08,10.0,North,17.3,-,N/A,,Clear,10,2013-07-22 18:53:00
11:53 AM,72.0,43.0,35,30.08,10.0,North,15.0,24.2,N/A,,Clear,10,2013-07-22 19:53:00
12:53 PM,73.0,44.1,35,30.08,10.0,North,11.5,-,N/A,,Clear,350,2013-07-22 20:53:00
1:53 PM,72.0,46.0,40,30.08,10.0,West,11.5,-,N/A,,Clear,280,2013-07-22 21:53:00
2:53 PM,73.0,46.0,38,30.09,10.0,WNW,10.4,-,N/A,,Clear,300,2013-07-22 22:53:00
3:53 PM,72.0,46.9,41,30.09,10.0,West,9.2,-,N/A,,Clear,260,2013-07-22 23:53:00
4:53 PM,70.0,46.9,44,30.08,10.0,WSW,10.4,-,N/A,,Clear,250,2013-07-23 00:53:00
5:53 PM,69.1,48.0,47,30.08,10.0,SSW,8.1,-,N/A,,Clear,210,2013-07-23 01:53:00
6:53 PM,66.0,46.9,50,30.08,10.0,SSW,8.1,-,N/A,,Clear,210,2013-07-23 02:53:00
7:53 PM,64.9,46.9,52,30.08,10.0,SSW,6.9,-,N/A,,Clear,210,2013-07-23 03:53:00
8:53 PM,62.1,48.0,60,30.08,10.0,SSW,5.8,-,N/A,,Clear,210,2013-07-23 04:53:00
9:53 PM,59.0,48.9,69,30.09,10.0,SSW,8.1,-,N/A,,Clear,200,2013-07-23 05:53:00
10:53 PM,57.0,48.9,74,30.09,10.0,SSW,8.1,-,N/A,,Clear,210,2013-07-23 06:53:00
11:53 PM,59.0,46.9,64,30.10,10.0,South,4.6,-,N/A,,Clear,190,2013-07-23 07:53:00